Incheon International Airport


Codes: RKSI/ICN
Name: Incheon International Airport
City: Seoul
Country: South Korea
Elevation: 23 ft.
Wikipedia:

Photos at Incheon International Airport


   Photos courtesy of SpottingLog. You can add your own sightings and photos by signing up for a free trial today.



HL8268, 02-Oct-2014
© Bob Kimmings

HL7766, 02-Oct-2014
© Bob Kimmings

HL8208, 02-Oct-2014
© Bob Kimmings

HL8210, 02-Oct-2014
© Bob Kimmings

HL8212, 02-Oct-2014
© Bob Kimmings

HL8239, 02-Oct-2014
© Bob Kimmings

HL8240, 02-Oct-2014
© Bob Kimmings

HL8243, 02-Oct-2014
© Bob Kimmings

HL8249, 02-Oct-2014
© Bob Kimmings

TC-JOA, 02-Oct-2014
© Bob Kimmings

N356UP, 02-Oct-2014
© Bob Kimmings

RP-C8972, 02-Oct-2014
© Bob Kimmings


Weather at Incheon International Airport


Time (UTC)DescriptionTempratureWindCloud coverageVisibilityPressureHumidity
16-Jun-2024 12:00Clear Sky22°C13 mph, W0%10000m1007hPa66%
16-Jun-2024 15:00Scattered Clouds20°C9 mph, W41%10000m1008hPa75%
16-Jun-2024 18:00Broken Clouds18°C2 mph, SW52%10000m1009hPa85%
16-Jun-2024 21:00Broken Clouds19°C2 mph, S75%10000m1009hPa85%
17-Jun-2024 00:00Overcast Clouds17°C11 mph, SE85%10000m1009hPa87%
17-Jun-2024 03:00Broken Clouds18°C4 mph, SW74%10000m1009hPa84%
17-Jun-2024 06:00Overcast Clouds19°C9 mph, SW87%10000m1007hPa83%
17-Jun-2024 09:00Overcast Clouds19°C7 mph, SW95%10000m1006hPa86%
17-Jun-2024 12:00Overcast Clouds19°C9 mph, SW94%10000m1006hPa83%
17-Jun-2024 15:00Scattered Clouds19°C4 mph, SW33%10000m1006hPa87%
17-Jun-2024 18:00Few Clouds19°C4 mph, SW17%10000m1006hPa89%
17-Jun-2024 21:00Clear Sky18°C7 mph, S0%10000m1006hPa92%
18-Jun-2024 00:00Clear Sky18°C7 mph, S0%10000m1007hPa96%
18-Jun-2024 03:00Clear Sky19°C9 mph, SW6%10000m1007hPa95%
18-Jun-2024 06:00Clear Sky19°C9 mph, SW5%10000m1006hPa97%
18-Jun-2024 09:00Clear Sky20°C9 mph, SW10%10000m1005hPa98%
18-Jun-2024 12:00Clear Sky19°C7 mph, S9%10000m1007hPa96%
18-Jun-2024 15:00Clear Sky19°C9 mph, S1%10000m1008hPa95%
18-Jun-2024 18:00Clear Sky19°C7 mph, S0%10000m1008hPa96%
18-Jun-2024 21:00Scattered Clouds19°C9 mph, S26%10000m1009hPa97%
19-Jun-2024 00:00Broken Clouds18°C9 mph, SE61%10000m1010hPa99%
19-Jun-2024 03:00Overcast Clouds18°C7 mph, SW100%10000m1010hPa96%
19-Jun-2024 06:00Overcast Clouds19°C7 mph, W100%10000m1009hPa95%
19-Jun-2024 09:00Overcast Clouds20°C7 mph, W99%10000m1008hPa88%
19-Jun-2024 12:00Broken Clouds21°C7 mph, NW84%10000m1007hPa79%
19-Jun-2024 15:00Few Clouds20°C7 mph, W18%10000m1008hPa83%
19-Jun-2024 18:00Scattered Clouds20°C2 mph, E49%10000m1007hPa82%
19-Jun-2024 21:00Overcast Clouds20°C7 mph, S99%10000m1007hPa80%
20-Jun-2024 00:00Overcast Clouds19°C0 mph, S98%10000m1007hPa85%
20-Jun-2024 03:00Clear Sky20°C4 mph, SW7%10000m1007hPa77%
20-Jun-2024 06:00Clear Sky20°C7 mph, SW4%10000m1005hPa78%
20-Jun-2024 09:00Overcast Clouds21°C11 mph, NW94%10000m1004hPa82%
20-Jun-2024 12:00Overcast Clouds20°C9 mph, NW97%10000m1005hPa85%
20-Jun-2024 15:00Overcast Clouds19°C9 mph, W99%10000m1004hPa88%
20-Jun-2024 18:00Overcast Clouds19°C4 mph, NW95%10000m1002hPa87%
20-Jun-2024 21:00Overcast Clouds19°C4 mph, SW100%10000m1002hPa86%
21-Jun-2024 00:00Overcast Clouds19°C2 mph, W93%10000m1003hPa89%
21-Jun-2024 03:00Overcast Clouds19°C4 mph, NW87%10000m1003hPa91%
21-Jun-2024 06:00Scattered Clouds19°C9 mph, W43%10000m1002hPa89%
21-Jun-2024 09:00Clear Sky20°C11 mph, W5%10000m1002hPa91%